Mount Pleasant, TX

4:26 AM CDT on April 24, 2018 (GMT -0500)
Mount Pleasant

Weather History for KOSA - November, 2012

Change the Weather History Date:

Monday, November 19, 2012

  Actual Average (KGGG) Record (KGGG)
Temperature  
Mean Temperature 60 °F -  
Max Temperature 69 °F 64 °F 85 °F (1938)
Min Temperature 50 °F 43 °F 20 °F (1951)
Degree Days  
Heating Degree Days 6    
Growing Degree Days 10 (Base 50)    
Moisture  
Dew Point 43 °F    
Average Humidity 59    
Maximum Humidity 76    
Minimum Humidity 35    
Precipitation  
Precipitation 0.00 in - - ()
Sea Level Pressure  
Sea Level Pressure 30.23 in    
Wind  
Wind Speed 3 mph (SE)    
Max Wind Speed 10 mph    
Max Gust Speed -    
Visibility 10 miles    
Events      
Averages and records for this station are not official NWS values.
T = Trace of Precipitation, MM = Missing Value Source: NWS Daily Summary

Daily Weather History Graph

Daily Weather History Graph

Search for Another Location

Airport or City:

Astronomy

Nov. 19, 2012 Rise Set
Actual Time 6:54 AM CST 5:15 PM CST
Civil Twilight 6:28 AM CST 5:42 PM CST
Nautical Twilight 5:58 AM CST 6:12 PM CST
Astronomical Twilight 5:28 AM CST 6:41 PM CST
Moon 12:04 PM CST (11/19) 11:35 PM CST (11/19)
Length of Visible Light 11h 13m
Length of Day
10h 20m
Waxing Crescent, 41% of the Moon is Illuminated
Nov 19
Waxing Crescent
Nov 20
First Quarter
Nov 28
Full
Dec 6
Last Quarter
Dec 13
New

Hourly Weather History & Observations

Time (CST) Temp. Dew Point Humidity Pressure Visibility Wind Dir Wind Speed Gust Speed Precip Events Conditions
12:15 AM 51.8 °F 39.2 °F 62% 30.27 in 10.0 mi SE 3.5 mph - N/A   Clear
12:35 AM 50.0 °F 41.0 °F 71% 30.27 in 10.0 mi ESE 3.5 mph - N/A   Clear
12:55 AM 50.0 °F 41.0 °F 71% 30.27 in 10.0 mi ESE 3.5 mph - N/A   Clear
1:15 AM 50.0 °F 41.0 °F 71% 30.27 in 10.0 mi ESE 3.5 mph - N/A   Clear
1:35 AM 50.0 °F 41.0 °F 71% 30.28 in 10.0 mi East 3.5 mph - N/A   Clear
1:55 AM 51.8 °F 41.0 °F 67% 30.27 in 10.0 mi Calm Calm - N/A   Clear
2:15 AM 51.8 °F 41.0 °F 67% 30.26 in 10.0 mi ESE 3.5 mph - N/A   Clear
2:35 AM 50.0 °F 41.0 °F 71% 30.27 in 10.0 mi Calm Calm - N/A   Clear
2:55 AM 51.8 °F 41.0 °F 67% 30.27 in 10.0 mi ESE 3.5 mph - N/A   Clear
3:15 AM 50.0 °F 41.0 °F 71% 30.27 in 10.0 mi ESE 3.5 mph - N/A   Clear
3:35 AM 50.0 °F 42.8 °F 76% 30.27 in 10.0 mi Calm Calm - N/A   Clear
3:55 AM 50.0 °F 41.0 °F 71% 30.26 in 10.0 mi Calm Calm - N/A   Scattered Clouds
4:15 AM 50.0 °F 41.0 °F 71% 30.26 in 10.0 mi Calm Calm - N/A   Mostly Cloudy
4:35 AM 50.0 °F 41.0 °F 71% 30.26 in 10.0 mi Calm Calm - N/A   Scattered Clouds
4:55 AM 50.0 °F 41.0 °F 71% 30.26 in 10.0 mi Calm Calm - N/A   Clear
5:15 AM 50.0 °F 41.0 °F 71% 30.26 in 10.0 mi ESE 3.5 mph - N/A   Clear
5:35 AM 50.0 °F 41.0 °F 71% 30.26 in 10.0 mi Calm Calm - N/A   Clear
5:55 AM 50.0 °F 41.0 °F 71% 30.26 in 10.0 mi Calm Calm - N/A   Clear
6:15 AM 50.0 °F 41.0 °F 71% 30.25 in 10.0 mi ESE 3.5 mph - N/A   Clear
6:35 AM 50.0 °F 41.0 °F 71% 30.26 in 10.0 mi Calm Calm - N/A   Clear
6:55 AM 50.0 °F 41.0 °F 71% 30.26 in 10.0 mi Calm Calm - N/A   Clear
7:35 AM 50.0 °F 42.8 °F 76% 30.27 in 10.0 mi Calm Calm - N/A   Clear
7:55 AM 50.0 °F 41.0 °F 71% 30.27 in 10.0 mi ESE 3.5 mph - N/A   Clear
8:15 AM 50.0 °F 42.8 °F 76% 30.28 in 10.0 mi Calm Calm - N/A   Clear
8:35 AM 51.8 °F 42.8 °F 71% 30.29 in 10.0 mi Calm Calm - N/A   Clear
8:55 AM 51.8 °F 42.8 °F 71% 30.29 in 10.0 mi Calm Calm - N/A   Clear
9:15 AM 53.6 °F 42.8 °F 67% 30.30 in 10.0 mi Calm Calm - N/A   Clear
9:35 AM 55.4 °F 44.6 °F 67% 30.30 in 10.0 mi SE 3.5 mph - N/A   Clear
9:55 AM 59.0 °F 42.8 °F 55% 30.29 in 10.0 mi South 8.1 mph - N/A   Clear
10:15 AM 60.8 °F 42.8 °F 52% 30.29 in 10.0 mi South 4.6 mph - N/A   Clear
10:35 AM 62.6 °F 42.8 °F 48% 30.28 in 10.0 mi SSE 10.4 mph - N/A   Clear
10:55 AM 62.6 °F 42.8 °F 48% 30.27 in 10.0 mi SSE 9.2 mph - N/A   Clear
11:15 AM 64.4 °F 42.8 °F 45% 30.27 in 10.0 mi South 5.8 mph - N/A   Clear
11:35 AM 66.2 °F 42.8 °F 43% 30.26 in 10.0 mi South 5.8 mph - N/A   Scattered Clouds
11:55 AM 68.0 °F 41.0 °F 37% 30.25 in 10.0 mi South 6.9 mph - N/A   Mostly Cloudy
12:15 PM 68.0 °F 39.2 °F 35% 30.24 in 10.0 mi SSE 5.8 mph - N/A   Scattered Clouds
12:35 PM 68.0 °F 41.0 °F 37% 30.23 in 10.0 mi SSE 4.6 mph - N/A   Mostly Cloudy
1:15 PM 68.0 °F 44.6 °F 43% 30.21 in 10.0 mi South 6.9 mph - N/A   Scattered Clouds
1:35 PM 68.0 °F 44.6 °F 43% 30.20 in 10.0 mi South 5.8 mph - N/A   Scattered Clouds
1:55 PM 69.8 °F 44.6 °F 40% 30.20 in 10.0 mi South 3.5 mph - N/A   Scattered Clouds
2:15 PM 68.0 °F 44.6 °F 43% 30.18 in 10.0 mi ESE 8.1 mph - N/A   Scattered Clouds
2:35 PM 68.0 °F 44.6 °F 43% 30.19 in 10.0 mi SE 6.9 mph - N/A   Scattered Clouds
2:55 PM 68.0 °F 44.6 °F 43% 30.19 in 10.0 mi ESE 6.9 mph - N/A   Scattered Clouds
3:15 PM 68.0 °F 44.6 °F 43% 30.18 in 10.0 mi SE 5.8 mph - N/A   Scattered Clouds
3:55 PM 68.0 °F 46.4 °F 46% 30.18 in 10.0 mi SSE 5.8 mph - N/A   Scattered Clouds
4:15 PM 68.0 °F 44.6 °F 43% 30.18 in 10.0 mi SE 5.8 mph - N/A   Scattered Clouds
4:35 PM 66.2 °F 44.6 °F 46% 30.18 in 10.0 mi SE 3.5 mph - N/A   Scattered Clouds
4:55 PM 64.4 °F 44.6 °F 49% 30.18 in 10.0 mi ESE 3.5 mph - N/A   Scattered Clouds
5:15 PM 64.4 °F 44.6 °F 49% 30.18 in 10.0 mi ESE 3.5 mph - N/A   Scattered Clouds
5:35 PM 64.4 °F 46.4 °F 52% 30.18 in 10.0 mi SE 4.6 mph - N/A   Mostly Cloudy
5:55 PM 62.6 °F 46.4 °F 55% 30.19 in 10.0 mi East 4.6 mph - N/A   Mostly Cloudy
6:15 PM 62.6 °F 46.4 °F 55% 30.20 in 10.0 mi ESE 3.5 mph - N/A   Overcast
6:35 PM 62.6 °F 46.4 °F 55% 30.20 in 10.0 mi ESE 4.6 mph - N/A   Mostly Cloudy
6:55 PM 62.6 °F 46.4 °F 55% 30.20 in 10.0 mi ESE 4.6 mph - N/A   Scattered Clouds
7:15 PM 62.6 °F 46.4 °F 55% 30.20 in 10.0 mi ESE 4.6 mph - N/A   Mostly Cloudy
7:35 PM 60.8 °F 46.4 °F 59% 30.20 in 10.0 mi SE 5.8 mph - N/A   Scattered Clouds
7:55 PM 60.8 °F 46.4 °F 59% 30.19 in 10.0 mi South 3.5 mph - N/A   Clear
8:15 PM 60.8 °F 46.4 °F 59% 30.20 in 10.0 mi Calm Calm - N/A   Scattered Clouds
8:35 PM 60.8 °F 46.4 °F 59% 30.20 in 10.0 mi East 4.6 mph - N/A   Mostly Cloudy
9:15 PM 60.8 °F 44.6 °F 55% 30.21 in 10.0 mi Calm Calm - N/A   Scattered Clouds
9:35 PM 60.8 °F 44.6 °F 55% 30.21 in 10.0 mi ESE 3.5 mph - N/A   Mostly Cloudy
9:55 PM 57.2 °F 48.2 °F 72% 30.20 in 10.0 mi Calm Calm - N/A   Scattered Clouds
10:15 PM 59.0 °F 46.4 °F 63% 30.20 in 10.0 mi East 3.5 mph - N/A   Scattered Clouds
10:35 PM 59.0 °F 46.4 °F 63% 30.19 in 10.0 mi ESE 3.5 mph - N/A   Scattered Clouds
10:55 PM 59.0 °F 46.4 °F 63% 30.19 in 10.0 mi Calm Calm - N/A   Clear
11:15 PM 59.0 °F 46.4 °F 63% 30.19 in 10.0 mi SE 3.5 mph - N/A   Scattered Clouds
11:35 PM 57.2 °F 46.4 °F 67% 30.18 in 10.0 mi ESE 3.5 mph - N/A   Scattered Clouds
11:55 PM 57.2 °F 46.4 °F 67% 30.18 in 10.0 mi Calm Calm - N/A   Scattered Clouds